Home   Weather   Lord Howe Island   Past weeks

Flag for Australia Past Weather in Lord Howe Island, Lord Howe Island, Australia — Yesterday and Last 2 Weeks

Now
78 °F

Warm.


Feels Like: 81 °F
Forecast: 75 / 78 °F
Wind: 12 mph from Northeast

Location: Lord Howe Island

Current Time: Jan 17, 2017 at 8:10:36 pm

Latest Report: Jan 17, 2017 at 6:00 pm


Visibility: N/A

Pressure: 30.01 "Hg

Humidity: 80%

Dew Point: 72 °F

Location of Lord Howe IslandLocation

Past Weather in Lord Howe Island — Graph

°F

Lord Howe Island Temperature Yesterday

Maximum temperature yesterday: 80 °F (at 2:00 pm)
Minimum temperature yesterday: 74 °F (at 6:00 am)
Average temperature yesterday: 76 °F

High & Low Weather Summary for the Past Weeks

 TemperatureHumidityPressure
High84 °F (Jan 14, 2:00 pm)95% (Jan 3, 5:00 am)30.09 "Hg (Jan 3, 5:00 am)
Low65 °F (Jan 9, 3:00 am)45% (Jan 8, 9:00 am)29.74 "Hg (Jan 14, 6:00 pm)
Average75 °F73%29.96 "Hg
* Reported Jan 2 6:00 pm — Jan 17 6:00 pm, Lord Howe Island, Weather by CustomWeather, © 2017

Note: Actual official high and low records may vary slightly from our data, if they occured in-between our weather recording intervals... More about our weather records

Advertising

Lord Howe Island Weather History for the Previous 24 Hours

Scroll right to see more
 ConditionsComfort  
Time TempWeatherWind HumidityBarometerVisibility
6:00 pm
Tue, Jan 17
78 °FWarm.12 mph80%30.01 "HgN/A
5:00 pm78 °FWarm.10 mph79%30.01 "HgN/A
3:00 pm80 °FOvercast.12 mph75%30.02 "HgN/A
2:00 pm80 °FWarm.14 mph73%30.02 "HgN/A
12:00 pm81 °FPassing clouds.9 mph74%30.08 "HgN/A
11:00 am81 °FWarm.10 mph71%30.08 "HgN/A
9:00 am78 °FOvercast.9 mph76%30.09 "HgN/A
8:00 am77 °FWarm.9 mph78%30.08 "HgN/A
6:00 am74 °FPartly sunny.8 mph85%30.05 "Hg6 mi
5:00 am74 °FMild.8 mph84%30.04 "HgN/A
3:00 am74 °FOvercast.8 mph84%30.04 "Hg6 mi
2:00 am75 °FMild.7 mph84%30.05 "HgN/A
12:00 am75 °FOvercast.10 mph83%30.07 "HgN/A
11:00 pm
Mon, Jan 16
75 °FMild.10 mph84%30.09 "HgN/A
9:00 pm75 °FOvercast.9 mph85%30.08 "HgN/A
8:00 pm75 °FMild.9 mph84%30.06 "HgN/A
Weather by CustomWeather, © 2017

See weather overviewHow to use our weather pages